User: anonymous   Login
Location: Fisheating Creek Campgrounds
(26.9333°N, 81.3167°W)
Time: 17:37:21
(UTC-04:00)
Language:

NATO 3D Rocket - Orbit

View from above orbital plane
View from above orbital plane
View from above satellite
View from above satellite

Ground track
Ground track

The orbit data is extracted from the following two-line orbital elements,

1 15392U 84115B   15145.16008795  .00000271  00000-0  11151-3 0  9993
2 15392 021.4932 156.5922 1034679 342.0593 070.4422 12.45496324389930
Epoch (UTC): 25 May 2015 03:50:31
Eccentricity: 0.1034679
inclination: 21.4932°
perigee height: 670 km
apogee height: 2297 km
right ascension of ascending node: 156.5922°
argument of perigee: 342.0593°
revolutions per day: 12.45496324
mean anomaly at epoch: 70.4422°
orbit number at epoch: 38993

The dashed part of the orbit path shows where the satellite is in the earth's shadow,  

DLR